Weather History for KSTK - January, 2014

Change the Weather History Date:

Friday, January 24, 2014

  Actual Average Record
Temperature  
Mean Temperature 26 °F -  
Max Temperature 53 °F 44 °F 53 °F (2014)
Min Temperature 0 °F 14 °F 0 °F (2014)
Degree Days  
Heating Degree Days 38    
Moisture  
Dew Point 15 °F    
Average Humidity 55    
Maximum Humidity 92    
Minimum Humidity 30    
Precipitation  
Precipitation 0.00 in - - ()
Sea Level Pressure  
Sea Level Pressure 30.15 in    
Wind  
Wind Speed 13 mph (West)    
Max Wind Speed 29 mph    
Max Gust Speed 36 mph    
Visibility 10 miles    
Events      
Averages and records for this station are not official NWS values.
T = Trace of Precipitation, MM = Missing Value Source: NWS Daily Summary

Daily Weather History Graph

Daily Weather History Graph

Search for Another Location

Airport or City:

Trip Planner

Search our weather history database for the weather conditions in past years. The results will help you decide how hot, cold, wet, or windy it might be!

Date:

Astronomy

Jan. 24, 2014 Rise Set
Actual Time 7:09 AM MST 5:01 PM MST
Civil Twilight 6:40 AM MST 5:30 PM MST
Nautical Twilight 6:06 AM MST 6:03 PM MST
Astronomical Twilight 5:34 AM MST 6:36 PM MST
Moon 12:38 AM MST (1/24) 11:21 AM MST (1/24)
Length of Visible Light 10h 50m
Length of Day
9h 51m
Last Quarter, 44% of the Moon is Illuminated
Jan 24
Last Quarter
Jan 30
New
Feb 6
First Quarter
Feb 14
Full
Feb 22
Last Quarter

Hourly Weather History & Observations

Time (MST) Temp. Windchill Dew Point Humidity Pressure Visibility Wind Dir Wind Speed Gust Speed Precip Events Conditions
12:10 AM -0.4 °F -15.7 °F -4.0 °F 85% 30.27 in 10.0 mi SSW 9.2 mph - N/A   Clear
12:30 AM 1.4 °F -12.5 °F -4.0 °F 78% 30.27 in 10.0 mi SW 8.1 mph - N/A   Clear
12:50 AM 1.4 °F -11.3 °F -2.2 °F 85% 30.26 in 10.0 mi SSW 6.9 mph - N/A   Clear
1:10 AM -0.4 °F -12.0 °F -4.0 °F 85% 30.25 in 10.0 mi SSW 5.8 mph - N/A   Clear
1:30 AM 1.4 °F -12.5 °F -2.2 °F 85% 30.25 in 10.0 mi SSW 8.1 mph - N/A   Clear
1:50 AM 1.4 °F -9.9 °F -2.2 °F 85% 30.25 in 10.0 mi SSW 5.8 mph - N/A   Clear
2:10 AM 1.4 °F -8.3 °F -0.4 °F 92% 30.25 in 10.0 mi South 4.6 mph - N/A   Clear
2:30 AM 3.2 °F -10.3 °F -0.4 °F 85% 30.25 in 10.0 mi SSW 8.1 mph - N/A   Clear
2:50 AM 3.2 °F -10.3 °F -0.4 °F 85% 30.25 in 10.0 mi SSW 8.1 mph - N/A   Clear
3:10 AM 3.2 °F -7.8 °F -0.4 °F 85% 30.25 in 10.0 mi SSW 5.8 mph - N/A   Clear
3:30 AM 3.2 °F -9.1 °F -0.4 °F 85% 30.25 in 10.0 mi SSW 6.9 mph - N/A   Clear
3:50 AM 3.2 °F -7.8 °F -0.4 °F 85% 30.24 in 10.0 mi SSW 5.8 mph - N/A   Clear
4:10 AM 3.2 °F -9.1 °F -0.4 °F 85% 30.24 in 10.0 mi SSW 6.9 mph - N/A   Clear
4:30 AM 5.0 °F -10.0 °F 1.4 °F 85% 30.23 in 10.0 mi SSW 10.4 mph - N/A   Clear
4:50 AM 5.0 °F -10.8 °F 1.4 °F 85% 30.22 in 10.0 mi SSW 11.5 mph - N/A   Clear
5:10 AM 5.0 °F -9.1 °F 3.2 °F 92% 30.22 in 10.0 mi SSW 9.2 mph - N/A   Clear
5:30 AM 5.0 °F -6.9 °F 1.4 °F 85% 30.22 in 10.0 mi SSW 6.9 mph - N/A   Clear
5:50 AM 6.8 °F -6.9 °F 3.2 °F 85% 30.23 in 10.0 mi SSW 9.2 mph - N/A   Scattered Clouds
6:10 AM 8.6 °F -1.3 °F 3.2 °F 79% 30.22 in 10.0 mi SSW 5.8 mph - N/A   Mostly Cloudy
6:30 AM 8.6 °F -2.6 °F 5.0 °F 85% 30.22 in 10.0 mi SSW 6.9 mph - N/A   Mostly Cloudy
6:50 AM 10.4 °F -1.5 °F 6.8 °F 85% 30.22 in 10.0 mi SSW 8.1 mph - N/A   Overcast
7:10 AM 10.4 °F -0.4 °F 6.8 °F 85% 30.21 in 10.0 mi South 6.9 mph - N/A   Overcast
7:30 AM 12.2 °F 0.7 °F 8.6 °F 85% 30.20 in 10.0 mi SSW 8.1 mph - N/A   Overcast
7:50 AM 24.8 °F 9.6 °F 17.6 °F 74% 30.17 in 10.0 mi NW 23.0 mph 28.8 mph N/A   Overcast
8:10 AM 32.0 °F 18.6 °F 15.8 °F 51% 30.17 in 10.0 mi NW 25.3 mph 29.9 mph N/A   Scattered Clouds
8:30 AM 32.0 °F 19.8 °F 14.0 °F 48% 30.18 in 10.0 mi WNW 20.7 mph 27.6 mph N/A   Clear
8:50 AM 37.4 °F 27.5 °F 14.0 °F 38% 30.17 in 10.0 mi NW 18.4 mph 24.2 mph N/A   Clear
9:10 AM 37.4 °F 25.4 °F 12.2 °F 36% 30.17 in 10.0 mi NW 27.6 mph 34.5 mph N/A   Clear
9:30 AM 37.4 °F 25.2 °F 14.0 °F 38% 30.17 in 10.0 mi NW 28.8 mph 34.5 mph N/A   Clear
9:50 AM 39.2 °F 28.3 °F 15.8 °F 39% 30.17 in 10.0 mi NW 25.3 mph 33.4 mph N/A   Clear
10:10 AM 41.0 °F 30.5 °F 15.8 °F 36% 30.17 in 10.0 mi NW 26.5 mph 35.7 mph N/A   Clear
10:30 AM 41.0 °F 30.9 °F 17.6 °F 39% 30.17 in 10.0 mi WNW 24.2 mph 31.1 mph N/A   Clear
10:50 AM 42.8 °F 34.5 °F 19.4 °F 39% 30.17 in 10.0 mi WNW 18.4 mph 25.3 mph N/A   Clear
11:10 AM 41.0 °F 33.1 °F 21.2 °F 45% 30.16 in 10.0 mi WNW 15.0 mph - N/A   Clear
11:30 AM 41.0 °F 33.1 °F 23.0 °F 49% 30.16 in 10.0 mi WNW 15.0 mph 19.6 mph N/A   Scattered Clouds
11:50 AM 42.8 °F 36.6 °F 24.8 °F 49% 30.16 in 10.0 mi WNW 11.5 mph - N/A   Clear
12:10 PM 44.6 °F 38.1 °F 26.6 °F 49% 30.13 in 10.0 mi West 13.8 mph - N/A   Clear
12:30 PM 44.6 °F 38.1 °F 26.6 °F 49% 30.12 in 10.0 mi WNW 13.8 mph - N/A   Scattered Clouds
12:50 PM 46.4 °F 39.5 °F 26.6 °F 46% 30.10 in 10.0 mi WNW 17.3 mph - N/A   Clear
1:10 PM 50.0 °F - 28.4 °F 43% 30.10 in 10.0 mi WNW 16.1 mph - N/A   Clear
1:30 PM 51.8 °F - 26.6 °F 38% 30.09 in 10.0 mi NW 21.9 mph 27.6 mph N/A   Clear
1:50 PM 53.6 °F - 26.6 °F 35% 30.07 in 10.0 mi NW 19.6 mph 28.8 mph N/A   Clear
2:10 PM 53.6 °F - 26.6 °F 35% 30.07 in 10.0 mi NW 19.6 mph 31.1 mph N/A   Clear
2:30 PM 53.6 °F - 23.0 °F 30% 30.06 in 10.0 mi NW 21.9 mph 28.8 mph N/A   Clear
2:50 PM 53.6 °F - 23.0 °F 30% 30.06 in 10.0 mi NW 18.4 mph 26.5 mph N/A   Clear
3:10 PM 53.6 °F - 24.8 °F 33% 30.06 in 10.0 mi NNW 23.0 mph 27.6 mph N/A   Clear
3:30 PM 53.6 °F - 23.0 °F 30% 30.06 in 10.0 mi NNW 25.3 mph 31.1 mph N/A   Clear
3:50 PM 53.6 °F - 23.0 °F 30% 30.06 in 10.0 mi NNW 21.9 mph 31.1 mph N/A   Clear
4:10 PM 53.6 °F - 23.0 °F 30% 30.06 in 10.0 mi NNW 23.0 mph 31.1 mph N/A   Clear
4:30 PM 51.8 °F - 23.0 °F 33% 30.06 in 10.0 mi NNW 24.2 mph 29.9 mph N/A   Clear
4:50 PM 50.0 °F - 23.0 °F 35% 30.07 in 10.0 mi NNW 15.0 mph 21.9 mph N/A   Clear
5:10 PM 48.2 °F - 23.0 °F 37% 30.06 in 10.0 mi NW 13.8 mph 19.6 mph N/A   Clear
5:30 PM 46.4 °F 41.1 °F 24.8 °F 43% 30.07 in 10.0 mi WNW 11.5 mph - N/A   Clear
5:50 PM 46.4 °F 40.4 °F 23.0 °F 40% 30.07 in 10.0 mi WNW 13.8 mph - N/A   Clear
6:10 PM 46.4 °F 39.5 °F 23.0 °F 40% 30.06 in 10.0 mi WNW 17.3 mph - N/A   Clear
6:30 PM 44.6 °F 38.1 °F 23.0 °F 43% 30.07 in 10.0 mi WNW 13.8 mph - N/A   Clear
6:50 PM 46.4 °F 39.8 °F 23.0 °F 40% 30.07 in 10.0 mi WNW 16.1 mph - N/A   Clear
7:10 PM 46.4 °F 39.0 °F 23.0 °F 40% 30.07 in 10.0 mi NW 19.6 mph - N/A   Clear
7:30 PM 44.6 °F 37.2 °F 23.0 °F 43% 30.08 in 10.0 mi NW 17.3 mph - N/A   Clear
7:50 PM 42.8 °F 35.1 °F 23.0 °F 46% 30.08 in 10.0 mi NW 16.1 mph - N/A   Clear
8:10 PM 42.8 °F 35.1 °F 23.0 °F 46% 30.08 in 10.0 mi NW 16.1 mph - N/A   Clear
8:30 PM 44.6 °F 36.4 °F 23.0 °F 43% 30.08 in 10.0 mi NW 20.7 mph 26.5 mph N/A   Clear
8:50 PM 44.6 °F 36.9 °F 21.2 °F 39% 30.08 in 10.0 mi NW 18.4 mph 25.3 mph N/A   Clear
9:10 PM 44.6 °F 36.9 °F 21.2 °F 39% 30.09 in 10.0 mi NW 18.4 mph - N/A   Clear
9:30 PM 44.6 °F 36.4 °F 19.4 °F 37% 30.09 in 10.0 mi NW 20.7 mph 26.5 mph N/A   Clear
9:50 PM 42.8 °F 34.0 °F 19.4 °F 39% 30.10 in 10.0 mi NW 20.7 mph 26.5 mph N/A   Clear
10:10 PM 42.8 °F 34.8 °F 19.4 °F 39% 30.11 in 10.0 mi NW 17.3 mph 23.0 mph N/A   Clear
10:30 PM 42.8 °F 34.3 °F 19.4 °F 39% 30.12 in 10.0 mi WNW 19.6 mph 26.5 mph N/A   Clear
10:50 PM 42.8 °F 35.1 °F 19.4 °F 39% 30.12 in 10.0 mi WNW 16.1 mph - N/A   Clear
11:10 PM 42.8 °F 34.8 °F 19.4 °F 39% 30.12 in 10.0 mi NW 17.3 mph 21.9 mph N/A   Clear
11:30 PM 44.6 °F 36.4 °F 19.4 °F 37% 30.11 in 10.0 mi NW 20.7 mph 26.5 mph N/A   Clear
11:50 PM 44.6 °F 35.9 °F 19.4 °F 37% 30.11 in 10.0 mi WNW 23.0 mph 29.9 mph N/A   Clear